Date_Time,Julian_Date,Latitude,Longitude,Instrument_Depth,Water_Salinity
(yyyy-mm-dd hh:mn:ss UTC),(JD),(+ deg. North),(+ deg. East),(m),(ppt)
1984-06-28 19:00:00 UTC,2445880.291667,29.6633,-93.4786,0090,0.3150
1984-06-28 19:30:00 UTC,2445880.312500,29.6633,-93.4786,0090,0.3150
1984-06-28 20:00:00 UTC,2445880.333333,29.6633,-93.4786,0090,0.3160
1984-06-28 20:30:00 UTC,2445880.354167,29.6633,-93.4786,0090,0.3160
1984-06-28 21:00:00 UTC,2445880.375000,29.6633,-93.4786,0090,0.3160
1984-06-28 21:30:00 UTC,2445880.395833,29.6633,-93.4786,0090,0.3160
1984-06-28 22:00:00 UTC,2445880.416667,29.6633,-93.4786,0090,0.3150
1984-06-28 22:30:00 UTC,2445880.437500,29.6633,-93.4786,0090,0.3150
1984-06-28 23:00:00 UTC,2445880.458333,29.6633,-93.4786,0090,0.3130
1984-06-28 23:30:00 UTC,2445880.479167,29.6633,-93.4786,0090,0.3100
1984-06-29 00:00:00 UTC,2445880.500000,29.6633,-93.4786,0090,0.3090
1984-06-29 00:30:00 UTC,2445880.520833,29.6633,-93.4786,0090,0.3090
1984-06-29 01:00:00 UTC,2445880.541667,29.6633,-93.4786,0090,0.3090
1984-06-29 01:30:00 UTC,2445880.562500,29.6633,-93.4786,0090,0.3090
1984-06-29 02:00:00 UTC,2445880.583333,29.6633,-93.4786,0090,0.3090
1984-06-29 02:30:00 UTC,2445880.604167,29.6633,-93.4786,0090,0.3090
1984-06-29 03:00:00 UTC,2445880.625000,29.6633,-93.4786,0090,0.3100
1984-06-29 03:30:00 UTC,2445880.645833,29.6633,-93.4786,0090,0.3100
1984-06-29 04:00:00 UTC,2445880.666667,29.6633,-93.4786,0090,0.3100
1984-06-29 04:30:00 UTC,2445880.687500,29.6633,-93.4786,0090,0.3100
1984-06-29 05:00:00 UTC,2445880.708333,29.6633,-93.4786,0090,0.3110
1984-06-29 05:30:00 UTC,2445880.729167,29.6633,-93.4786,0090,0.3130
1984-06-29 06:00:00 UTC,2445880.750000,29.6633,-93.4786,0090,0.3170
1984-06-29 06:30:00 UTC,2445880.770833,29.6633,-93.4786,0090,0.3210
1984-06-29 07:00:00 UTC,2445880.791667,29.6633,-93.4786,0090,0.3240
1984-06-29 07:30:00 UTC,2445880.812500,29.6633,-93.4786,0090,0.3260
1984-06-29 08:00:00 UTC,2445880.833333,29.6633,-93.4786,0090,0.3290
1984-06-29 08:30:00 UTC,2445880.854167,29.6633,-93.4786,0090,0.3310
1984-06-29 09:00:00 UTC,2445880.875000,29.6633,-93.4786,0090,0.3320
1984-06-29 09:30:00 UTC,2445880.895833,29.6633,-93.4786,0090,0.3310
1984-06-29 10:00:00 UTC,2445880.916667,29.6633,-93.4786,0090,0.3310
1984-06-29 10:30:00 UTC,2445880.937500,29.6633,-93.4786,0090,0.3300
1984-06-29 11:00:00 UTC,2445880.958333,29.6633,-93.4786,0090,0.3280
1984-06-29 11:30:00 UTC,2445880.979167,29.6633,-93.4786,0090,0.3250
1984-06-29 12:00:00 UTC,2445881.000000,29.6633,-93.4786,0090,0.3220
1984-06-29 12:30:00 UTC,2445881.020833,29.6633,-93.4786,0090,0.3210
1984-06-29 13:00:00 UTC,2445881.041667,29.6633,-93.4786,0090,0.3190
1984-06-29 13:30:00 UTC,2445881.062500,29.6633,-93.4786,0090,0.3150
1984-06-29 14:00:00 UTC,2445881.083333,29.6633,-93.4786,0090,0.3130
1984-06-29 14:30:00 UTC,2445881.104167,29.6633,-93.4786,0090,0.3120
1984-06-29 15:00:00 UTC,2445881.125000,29.6633,-93.4786,0090,0.3110
1984-06-29 15:30:00 UTC,2445881.145833,29.6633,-93.4786,0090,0.3110
1984-06-29 16:00:00 UTC,2445881.166667,29.6633,-93.4786,0090,0.3120
1984-06-29 16:30:00 UTC,2445881.187500,29.6633,-93.4786,0090,0.3110
1984-06-29 17:00:00 UTC,2445881.208333,29.6633,-93.4786,0090,0.3110
1984-06-29 17:30:00 UTC,2445881.229167,29.6633,-93.4786,0090,0.3100
1984-06-29 18:00:00 UTC,2445881.250000,29.6633,-93.4786,0090,0.3100
1984-06-29 18:30:00 UTC,2445881.270833,29.6633,-93.4786,0090,0.3130
1984-06-29 19:00:00 UTC,2445881.291667,29.6633,-93.4786,0090,0.3160
1984-06-29 19:30:00 UTC,2445881.312500,29.6633,-93.4786,0090,0.3170
1984-06-29 20:00:00 UTC,2445881.333333,29.6633,-93.4786,0090,0.3180
1984-06-29 20:30:00 UTC,2445881.354167,29.6633,-93.4786,0090,0.3200
1984-06-29 21:00:00 UTC,2445881.375000,29.6633,-93.4786,0090,0.3210
1984-06-29 21:30:00 UTC,2445881.395833,29.6633,-93.4786,0090,0.3210
1984-06-29 22:00:00 UTC,2445881.416667,29.6633,-93.4786,0090,0.3210
1984-06-29 22:30:00 UTC,2445881.437500,29.6633,-93.4786,0090,0.3200
1984-06-29 23:00:00 UTC,2445881.458333,29.6633,-93.4786,0090,0.3190
1984-06-29 23:30:00 UTC,2445881.479167,29.6633,-93.4786,0090,0.3170
1984-06-30 00:00:00 UTC,2445881.500000,29.6633,-93.4786,0090,0.3170
1984-06-30 00:30:00 UTC,2445881.520833,29.6633,-93.4786,0090,0.3170
1984-06-30 01:00:00 UTC,2445881.541667,29.6633,-93.4786,0090,0.3170
1984-06-30 01:30:00 UTC,2445881.562500,29.6633,-93.4786,0090,0.3160
1984-06-30 02:00:00 UTC,2445881.583333,29.6633,-93.4786,0090,0.3150
1984-06-30 02:30:00 UTC,2445881.604167,29.6633,-93.4786,0090,0.3140
1984-06-30 03:00:00 UTC,2445881.625000,29.6633,-93.4786,0090,0.3140
1984-06-30 03:30:00 UTC,2445881.645833,29.6633,-93.4786,0090,0.3120
1984-06-30 04:00:00 UTC,2445881.666667,29.6633,-93.4786,0090,0.3100
1984-06-30 04:30:00 UTC,2445881.687500,29.6633,-93.4786,0090,0.3100
1984-06-30 05:00:00 UTC,2445881.708333,29.6633,-93.4786,0090,0.3100
1984-06-30 05:30:00 UTC,2445881.729167,29.6633,-93.4786,0090,0.3110
1984-06-30 06:00:00 UTC,2445881.750000,29.6633,-93.4786,0090,0.3100
1984-06-30 06:30:00 UTC,2445881.770833,29.6633,-93.4786,0090,0.3090
1984-06-30 07:00:00 UTC,2445881.791667,29.6633,-93.4786,0090,0.3090
1984-06-30 07:30:00 UTC,2445881.812500,29.6633,-93.4786,0090,0.3090
1984-06-30 08:00:00 UTC,2445881.833333,29.6633,-93.4786,0090,0.3090
1984-06-30 08:30:00 UTC,2445881.854167,29.6633,-93.4786,0090,0.3100
1984-06-30 09:00:00 UTC,2445881.875000,29.6633,-93.4786,0090,0.3090
1984-06-30 09:30:00 UTC,2445881.895833,29.6633,-93.4786,0090,0.3080
1984-06-30 10:00:00 UTC,2445881.916667,29.6633,-93.4786,0090,0.3080
1984-06-30 10:30:00 UTC,2445881.937500,29.6633,-93.4786,0090,0.3080
1984-06-30 11:00:00 UTC,2445881.958333,29.6633,-93.4786,0090,0.3090
1984-06-30 11:30:00 UTC,2445881.979167,29.6633,-93.4786,0090,0.3090
1984-06-30 12:00:00 UTC,2445882.000000,29.6633,-93.4786,0090,0.3100
1984-06-30 12:30:00 UTC,2445882.020833,29.6633,-93.4786,0090,0.3090
1984-06-30 13:00:00 UTC,2445882.041667,29.6633,-93.4786,0090,0.3090
1984-06-30 13:30:00 UTC,2445882.062500,29.6633,-93.4786,0090,0.3080
1984-06-30 14:00:00 UTC,2445882.083333,29.6633,-93.4786,0090,0.3080
1984-06-30 14:30:00 UTC,2445882.104167,29.6633,-93.4786,0090,0.3080
1984-06-30 15:00:00 UTC,2445882.125000,29.6633,-93.4786,0090,0.3080
1984-06-30 15:30:00 UTC,2445882.145833,29.6633,-93.4786,0090,0.3080
1984-06-30 16:00:00 UTC,2445882.166667,29.6633,-93.4786,0090,0.3080
1984-06-30 16:30:00 UTC,2445882.187500,29.6633,-93.4786,0090,0.3080
1984-06-30 17:00:00 UTC,2445882.208333,29.6633,-93.4786,0090,0.3080
1984-06-30 17:30:00 UTC,2445882.229167,29.6633,-93.4786,0090,0.3080
1984-06-30 18:00:00 UTC,2445882.250000,29.6633,-93.4786,0090,0.3080
1984-06-30 18:30:00 UTC,2445882.270833,29.6633,-93.4786,0090,0.3090
1984-06-30 19:00:00 UTC,2445882.291667,29.6633,-93.4786,0090,0.3090
1984-06-30 19:30:00 UTC,2445882.312500,29.6633,-93.4786,0090,0.3100
1984-06-30 20:00:00 UTC,2445882.333333,29.6633,-93.4786,0090,0.3100
1984-06-30 20:30:00 UTC,2445882.354167,29.6633,-93.4786,0090,0.3110
1984-06-30 21:00:00 UTC,2445882.375000,29.6633,-93.4786,0090,0.3110
1984-06-30 21:30:00 UTC,2445882.395833,29.6633,-93.4786,0090,0.3110
1984-06-30 22:00:00 UTC,2445882.416667,29.6633,-93.4786,0090,0.3110
1984-06-30 22:30:00 UTC,2445882.437500,29.6633,-93.4786,0090,0.3110
1984-06-30 23:00:00 UTC,2445882.458333,29.6633,-93.4786,0090,0.3110
1984-06-30 23:30:00 UTC,2445882.479167,29.6633,-93.4786,0090,0.3110
1984-07-01 00:00:00 UTC,2445882.500000,29.6633,-93.4786,0090,0.3110
1984-07-01 00:30:00 UTC,2445882.520833,29.6633,-93.4786,0090,0.3110
1984-07-01 01:00:00 UTC,2445882.541667,29.6633,-93.4786,0090,0.3100
1984-07-01 01:30:00 UTC,2445882.562500,29.6633,-93.4786,0090,0.3100
1984-07-01 02:00:00 UTC,2445882.583333,29.6633,-93.4786,0090,0.3090
1984-07-01 02:30:00 UTC,2445882.604167,29.6633,-93.4786,0090,0.3120
1984-07-01 03:00:00 UTC,2445882.625000,29.6633,-93.4786,0090,0.3200
1984-07-01 03:30:00 UTC,2445882.645833,29.6633,-93.4786,0090,0.3280
1984-07-01 04:00:00 UTC,2445882.666667,29.6633,-93.4786,0090,0.3300
1984-07-01 04:30:00 UTC,2445882.687500,29.6633,-93.4786,0090,0.3270
1984-07-01 05:00:00 UTC,2445882.708333,29.6633,-93.4786,0090,0.3260
1984-07-01 05:30:00 UTC,2445882.729167,29.6633,-93.4786,0090,0.3270
1984-07-01 06:00:00 UTC,2445882.750000,29.6633,-93.4786,0090,0.3300
1984-07-01 06:30:00 UTC,2445882.770833,29.6633,-93.4786,0090,0.3300
1984-07-01 07:00:00 UTC,2445882.791667,29.6633,-93.4786,0090,0.3270
1984-07-01 07:30:00 UTC,2445882.812500,29.6633,-93.4786,0090,0.3220
1984-07-01 08:00:00 UTC,2445882.833333,29.6633,-93.4786,0090,0.3190
1984-07-01 08:30:00 UTC,2445882.854167,29.6633,-93.4786,0090,0.3170
1984-07-01 09:00:00 UTC,2445882.875000,29.6633,-93.4786,0090,0.3150
1984-07-01 09:30:00 UTC,2445882.895833,29.6633,-93.4786,0090,0.3140
1984-07-01 10:00:00 UTC,2445882.916667,29.6633,-93.4786,0090,0.3130
1984-07-01 10:30:00 UTC,2445882.937500,29.6633,-93.4786,0090,0.3120
1984-07-01 11:00:00 UTC,2445882.958333,29.6633,-93.4786,0090,0.3110
1984-07-01 11:30:00 UTC,2445882.979167,29.6633,-93.4786,0090,0.3120
1984-07-01 12:00:00 UTC,2445883.000000,29.6633,-93.4786,0090,0.3160
1984-07-01 12:30:00 UTC,2445883.020833,29.6633,-93.4786,0090,0.3190
1984-07-01 13:00:00 UTC,2445883.041667,29.6633,-93.4786,0090,0.3180
1984-07-01 13:30:00 UTC,2445883.062500,29.6633,-93.4786,0090,0.3140
1984-07-01 14:00:00 UTC,2445883.083333,29.6633,-93.4786,0090,0.3120
1984-07-01 14:30:00 UTC,2445883.104167,29.6633,-93.4786,0090,0.3120
1984-07-01 15:00:00 UTC,2445883.125000,29.6633,-93.4786,0090,0.3120
1984-07-01 15:30:00 UTC,2445883.145833,29.6633,-93.4786,0090,0.3130
1984-07-01 16:00:00 UTC,2445883.166667,29.6633,-93.4786,0090,0.3140
1984-07-01 16:30:00 UTC,2445883.187500,29.6633,-93.4786,0090,0.3150
1984-07-01 17:00:00 UTC,2445883.208333,29.6633,-93.4786,0090,0.3140
1984-07-01 17:30:00 UTC,2445883.229167,29.6633,-93.4786,0090,0.3140
1984-07-01 18:00:00 UTC,2445883.250000,29.6633,-93.4786,0090,0.3160
1984-07-01 18:30:00 UTC,2445883.270833,29.6633,-93.4786,0090,0.3200
1984-07-01 19:00:00 UTC,2445883.291667,29.6633,-93.4786,0090,0.3220
1984-07-01 19:30:00 UTC,2445883.312500,29.6633,-93.4786,0090,0.3230
1984-07-01 20:00:00 UTC,2445883.333333,29.6633,-93.4786,0090,0.3220
1984-07-01 20:30:00 UTC,2445883.354167,29.6633,-93.4786,0090,0.3190
1984-07-01 21:00:00 UTC,2445883.375000,29.6633,-93.4786,0090,0.3150
1984-07-01 21:30:00 UTC,2445883.395833,29.6633,-93.4786,0090,0.3140
1984-07-01 22:00:00 UTC,2445883.416667,29.6633,-93.4786,0090,0.3130
1984-07-01 22:30:00 UTC,2445883.437500,29.6633,-93.4786,0090,0.3130
1984-07-01 23:00:00 UTC,2445883.458333,29.6633,-93.4786,0090,0.3130
1984-07-01 23:30:00 UTC,2445883.479167,29.6633,-93.4786,0090,0.3140
1984-07-02 00:00:00 UTC,2445883.500000,29.6633,-93.4786,0090,0.3140
1984-07-02 00:30:00 UTC,2445883.520833,29.6633,-93.4786,0090,0.3140
1984-07-02 01:00:00 UTC,2445883.541667,29.6633,-93.4786,0090,0.3140
1984-07-02 01:30:00 UTC,2445883.562500,29.6633,-93.4786,0090,0.3150
1984-07-02 02:00:00 UTC,2445883.583333,29.6633,-93.4786,0090,0.3130
1984-07-02 02:30:00 UTC,2445883.604167,29.6633,-93.4786,0090,0.3120
1984-07-02 03:00:00 UTC,2445883.625000,29.6633,-93.4786,0090,0.3120
1984-07-02 03:30:00 UTC,2445883.645833,29.6633,-93.4786,0090,0.3130
1984-07-02 04:00:00 UTC,2445883.666667,29.6633,-93.4786,0090,0.3130
1984-07-02 04:30:00 UTC,2445883.687500,29.6633,-93.4786,0090,0.3130
1984-07-02 05:00:00 UTC,2445883.708333,29.6633,-93.4786,0090,0.3140
1984-07-02 05:30:00 UTC,2445883.729167,29.6633,-93.4786,0090,0.3150
1984-07-02 06:00:00 UTC,2445883.750000,29.6633,-93.4786,0090,0.3150
1984-07-02 06:30:00 UTC,2445883.770833,29.6633,-93.4786,0090,0.3140
1984-07-02 07:00:00 UTC,2445883.791667,29.6633,-93.4786,0090,0.3130
1984-07-02 07:30:00 UTC,2445883.812500,29.6633,-93.4786,0090,0.3130
1984-07-02 08:00:00 UTC,2445883.833333,29.6633,-93.4786,0090,0.3130
1984-07-02 08:30:00 UTC,2445883.854167,29.6633,-93.4786,0090,0.3170
1984-07-02 09:00:00 UTC,2445883.875000,29.6633,-93.4786,0090,0.3230
1984-07-02 09:30:00 UTC,2445883.895833,29.6633,-93.4786,0090,0.3300
1984-07-02 10:00:00 UTC,2445883.916667,29.6633,-93.4786,0090,0.3360
1984-07-02 10:30:00 UTC,2445883.937500,29.6633,-93.4786,0090,0.3420
1984-07-02 11:00:00 UTC,2445883.958333,29.6633,-93.4786,0090,0.3430
1984-07-02 11:30:00 UTC,2445883.979167,29.6633,-93.4786,0090,0.3430
1984-07-02 12:00:00 UTC,2445884.000000,29.6633,-93.4786,0090,0.3450
1984-07-02 12:30:00 UTC,2445884.020833,29.6633,-93.4786,0090,0.3480
1984-07-02 13:00:00 UTC,2445884.041667,29.6633,-93.4786,0090,0.3510
1984-07-02 13:30:00 UTC,2445884.062500,29.6633,-93.4786,0090,0.3510
1984-07-02 14:00:00 UTC,2445884.083333,29.6633,-93.4786,0090,0.3510
1984-07-02 14:30:00 UTC,2445884.104167,29.6633,-93.4786,0090,0.3500
1984-07-02 15:00:00 UTC,2445884.125000,29.6633,-93.4786,0090,0.3490
1984-07-02 15:30:00 UTC,2445884.145833,29.6633,-93.4786,0090,0.3480
1984-07-02 16:00:00 UTC,2445884.166667,29.6633,-93.4786,0090,0.3460
1984-07-02 16:30:00 UTC,2445884.187500,29.6633,-93.4786,0090,0.3450
1984-07-02 17:00:00 UTC,2445884.208333,29.6633,-93.4786,0090,0.3440
1984-07-02 17:30:00 UTC,2445884.229167,29.6633,-93.4786,0090,0.3430
1984-07-02 18:00:00 UTC,2445884.250000,29.6633,-93.4786,0090,0.3380
1984-07-02 18:30:00 UTC,2445884.270833,29.6633,-93.4786,0090,0.3280
1984-07-02 19:00:00 UTC,2445884.291667,29.6633,-93.4786,0090,0.3210
1984-07-02 19:30:00 UTC,2445884.312500,29.6633,-93.4786,0090,0.3230
1984-07-02 20:00:00 UTC,2445884.333333,29.6633,-93.4786,0090,0.3270
1984-07-02 20:30:00 UTC,2445884.354167,29.6633,-93.4786,0090,0.3240
1984-07-02 21:00:00 UTC,2445884.375000,29.6633,-93.4786,0090,0.3240
1984-07-02 21:30:00 UTC,2445884.395833,29.6633,-93.4786,0090,0.3300
1984-07-02 22:00:00 UTC,2445884.416667,29.6633,-93.4786,0090,0.3320
1984-07-02 22:30:00 UTC,2445884.437500,29.6633,-93.4786,0090,0.3330
1984-07-02 23:00:00 UTC,2445884.458333,29.6633,-93.4786,0090,0.3360
1984-07-02 23:30:00 UTC,2445884.479167,29.6633,-93.4786,0090,0.3370
1984-07-03 00:00:00 UTC,2445884.500000,29.6633,-93.4786,0090,0.3340
1984-07-03 00:30:00 UTC,2445884.520833,29.6633,-93.4786,0090,0.3300
1984-07-03 01:00:00 UTC,2445884.541667,29.6633,-93.4786,0090,0.3320
1984-07-03 01:30:00 UTC,2445884.562500,29.6633,-93.4786,0090,0.3380
1984-07-03 02:00:00 UTC,2445884.583333,29.6633,-93.4786,0090,0.3360
1984-07-03 02:30:00 UTC,2445884.604167,29.6633,-93.4786,0090,0.3260
1984-07-03 03:00:00 UTC,2445884.625000,29.6633,-93.4786,0090,0.3180
1984-07-03 03:30:00 UTC,2445884.645833,29.6633,-93.4786,0090,0.3150
1984-07-03 04:00:00 UTC,2445884.666667,29.6633,-93.4786,0090,0.3140
1984-07-03 04:30:00 UTC,2445884.687500,29.6633,-93.4786,0090,0.3130
1984-07-03 05:00:00 UTC,2445884.708333,29.6633,-93.4786,0090,0.3130
1984-07-03 05:30:00 UTC,2445884.729167,29.6633,-93.4786,0090,0.3140
1984-07-03 06:00:00 UTC,2445884.750000,29.6633,-93.4786,0090,0.3140
1984-07-03 06:30:00 UTC,2445884.770833,29.6633,-93.4786,0090,0.3150
1984-07-03 07:00:00 UTC,2445884.791667,29.6633,-93.4786,0090,0.3210
1984-07-03 07:30:00 UTC,2445884.812500,29.6633,-93.4786,0090,0.3260
1984-07-03 08:00:00 UTC,2445884.833333,29.6633,-93.4786,0090,0.3280
1984-07-03 08:30:00 UTC,2445884.854167,29.6633,-93.4786,0090,0.3290
1984-07-03 09:00:00 UTC,2445884.875000,29.6633,-93.4786,0090,0.3320
1984-07-03 09:30:00 UTC,2445884.895833,29.6633,-93.4786,0090,0.3340
1984-07-03 10:00:00 UTC,2445884.916667,29.6633,-93.4786,0090,0.3330
1984-07-03 10:30:00 UTC,2445884.937500,29.6633,-93.4786,0090,0.3300
1984-07-03 11:00:00 UTC,2445884.958333,29.6633,-93.4786,0090,0.3300
1984-07-03 11:30:00 UTC,2445884.979167,29.6633,-93.4786,0090,0.3330
1984-07-03 12:00:00 UTC,2445885.000000,29.6633,-93.4786,0090,0.3360
1984-07-03 12:30:00 UTC,2445885.020833,29.6633,-93.4786,0090,0.3360
1984-07-03 13:00:00 UTC,2445885.041667,29.6633,-93.4786,0090,0.3360
1984-07-03 13:30:00 UTC,2445885.062500,29.6633,-93.4786,0090,0.3350
1984-07-03 14:00:00 UTC,2445885.083333,29.6633,-93.4786,0090,0.3350
1984-07-03 14:30:00 UTC,2445885.104167,29.6633,-93.4786,0090,0.3360
1984-07-03 15:00:00 UTC,2445885.125000,29.6633,-93.4786,0090,0.3370
1984-07-03 15:30:00 UTC,2445885.145833,29.6633,-93.4786,0090,0.3370
1984-07-03 16:00:00 UTC,2445885.166667,29.6633,-93.4786,0090,0.3360
1984-07-03 16:30:00 UTC,2445885.187500,29.6633,-93.4786,0090,0.3340
1984-07-03 17:00:00 UTC,2445885.208333,29.6633,-93.4786,0090,0.3310
1984-07-03 17:30:00 UTC,2445885.229167,29.6633,-93.4786,0090,0.3310
1984-07-03 18:00:00 UTC,2445885.250000,29.6633,-93.4786,0090,0.3320
1984-07-03 18:30:00 UTC,2445885.270833,29.6633,-93.4786,0090,0.3310
1984-07-03 19:00:00 UTC,2445885.291667,29.6633,-93.4786,0090,0.3310
1984-07-03 19:30:00 UTC,2445885.312500,29.6633,-93.4786,0090,0.3350
1984-07-03 20:00:00 UTC,2445885.333333,29.6633,-93.4786,0090,0.3360
1984-07-03 20:30:00 UTC,2445885.354167,29.6633,-93.4786,0090,0.3330
1984-07-03 21:00:00 UTC,2445885.375000,29.6633,-93.4786,0090,0.3330
1984-07-03 21:30:00 UTC,2445885.395833,29.6633,-93.4786,0090,0.3340
1984-07-03 22:00:00 UTC,2445885.416667,29.6633,-93.4786,0090,0.3320
1984-07-03 22:30:00 UTC,2445885.437500,29.6633,-93.4786,0090,0.3310
1984-07-03 23:00:00 UTC,2445885.458333,29.6633,-93.4786,0090,0.3350
1984-07-03 23:30:00 UTC,2445885.479167,29.6633,-93.4786,0090,0.3390
1984-07-04 00:00:00 UTC,2445885.500000,29.6633,-93.4786,0090,0.3400
1984-07-04 00:30:00 UTC,2445885.520833,29.6633,-93.4786,0090,0.3350
1984-07-04 01:00:00 UTC,2445885.541667,29.6633,-93.4786,0090,0.3270
1984-07-04 01:30:00 UTC,2445885.562500,29.6633,-93.4786,0090,0.3220
1984-07-04 02:00:00 UTC,2445885.583333,29.6633,-93.4786,0090,0.3250
1984-07-04 02:30:00 UTC,2445885.604167,29.6633,-93.4786,0090,0.3320
1984-07-04 03:00:00 UTC,2445885.625000,29.6633,-93.4786,0090,0.3320
1984-07-04 03:30:00 UTC,2445885.645833,29.6633,-93.4786,0090,0.3240
1984-07-04 04:00:00 UTC,2445885.666667,29.6633,-93.4786,0090,0.3170
1984-07-04 04:30:00 UTC,2445885.687500,29.6633,-93.4786,0090,0.3170
1984-07-04 05:00:00 UTC,2445885.708333,29.6633,-93.4786,0090,0.3170
1984-07-04 05:30:00 UTC,2445885.729167,29.6633,-93.4786,0090,0.3170
1984-07-04 06:00:00 UTC,2445885.750000,29.6633,-93.4786,0090,0.3190
1984-07-04 06:30:00 UTC,2445885.770833,29.6633,-93.4786,0090,0.3220
1984-07-04 07:00:00 UTC,2445885.791667,29.6633,-93.4786,0090,0.3230
1984-07-04 07:30:00 UTC,2445885.812500,29.6633,-93.4786,0090,0.3200
1984-07-04 08:00:00 UTC,2445885.833333,29.6633,-93.4786,0090,0.3150
1984-07-04 08:30:00 UTC,2445885.854167,29.6633,-93.4786,0090,0.3130
1984-07-04 09:00:00 UTC,2445885.875000,29.6633,-93.4786,0090,0.3130
1984-07-04 09:30:00 UTC,2445885.895833,29.6633,-93.4786,0090,0.3140
1984-07-04 10:00:00 UTC,2445885.916667,29.6633,-93.4786,0090,0.3190
1984-07-04 10:30:00 UTC,2445885.937500,29.6633,-93.4786,0090,0.3240
1984-07-04 11:00:00 UTC,2445885.958333,29.6633,-93.4786,0090,0.3250
1984-07-04 11:30:00 UTC,2445885.979167,29.6633,-93.4786,0090,0.3220
1984-07-04 12:00:00 UTC,2445886.000000,29.6633,-93.4786,0090,0.3170
1984-07-04 12:30:00 UTC,2445886.020833,29.6633,-93.4786,0090,0.3140
1984-07-04 13:00:00 UTC,2445886.041667,29.6633,-93.4786,0090,0.3150
1984-07-04 13:30:00 UTC,2445886.062500,29.6633,-93.4786,0090,0.3200
1984-07-04 14:00:00 UTC,2445886.083333,29.6633,-93.4786,0090,0.3240
1984-07-04 14:30:00 UTC,2445886.104167,29.6633,-93.4786,0090,0.3260
1984-07-04 15:00:00 UTC,2445886.125000,29.6633,-93.4786,0090,0.3270
1984-07-04 15:30:00 UTC,2445886.145833,29.6633,-93.4786,0090,0.3310
1984-07-04 16:00:00 UTC,2445886.166667,29.6633,-93.4786,0090,0.3360
1984-07-04 16:30:00 UTC,2445886.187500,29.6633,-93.4786,0090,0.3360
1984-07-04 17:00:00 UTC,2445886.208333,29.6633,-93.4786,0090,0.3340
1984-07-04 17:30:00 UTC,2445886.229167,29.6633,-93.4786,0090,0.3350
1984-07-04 18:00:00 UTC,2445886.250000,29.6633,-93.4786,0090,0.3380
1984-07-04 18:30:00 UTC,2445886.270833,29.6633,-93.4786,0090,0.3380
1984-07-04 19:00:00 UTC,2445886.291667,29.6633,-93.4786,0090,0.3360
1984-07-04 19:30:00 UTC,2445886.312500,29.6633,-93.4786,0090,0.3350
1984-07-04 20:00:00 UTC,2445886.333333,29.6633,-93.4786,0090,0.3340
1984-07-04 20:30:00 UTC,2445886.354167,29.6633,-93.4786,0090,0.3330
1984-07-04 21:00:00 UTC,2445886.375000,29.6633,-93.4786,0090,0.3350
1984-07-04 21:30:00 UTC,2445886.395833,29.6633,-93.4786,0090,0.3350
1984-07-04 22:00:00 UTC,2445886.416667,29.6633,-93.4786,0090,0.3330
1984-07-04 22:30:00 UTC,2445886.437500,29.6633,-93.4786,0090,0.3310
1984-07-04 23:00:00 UTC,2445886.458333,29.6633,-93.4786,0090,0.3320
1984-07-04 23:30:00 UTC,2445886.479167,29.6633,-93.4786,0090,0.3340
1984-07-05 00:00:00 UTC,2445886.500000,29.6633,-93.4786,0090,0.3350
1984-07-05 00:30:00 UTC,2445886.520833,29.6633,-93.4786,0090,0.3360
1984-07-05 01:00:00 UTC,2445886.541667,29.6633,-93.4786,0090,0.3360
1984-07-05 01:30:00 UTC,2445886.562500,29.6633,-93.4786,0090,0.3350
1984-07-05 02:00:00 UTC,2445886.583333,29.6633,-93.4786,0090,0.3340
1984-07-05 02:30:00 UTC,2445886.604167,29.6633,-93.4786,0090,0.3330
1984-07-05 03:00:00 UTC,2445886.625000,29.6633,-93.4786,0090,0.3310
1984-07-05 03:30:00 UTC,2445886.645833,29.6633,-93.4786,0090,0.3310
1984-07-05 04:00:00 UTC,2445886.666667,29.6633,-93.4786,0090,0.3340
1984-07-05 04:30:00 UTC,2445886.687500,29.6633,-93.4786,0090,0.3360
1984-07-05 05:00:00 UTC,2445886.708333,29.6633,-93.4786,0090,0.3370
1984-07-05 05:30:00 UTC,2445886.729167,29.6633,-93.4786,0090,0.3400
1984-07-05 06:00:00 UTC,2445886.750000,29.6633,-93.4786,0090,0.3420
1984-07-05 06:30:00 UTC,2445886.770833,29.6633,-93.4786,0090,0.3420
1984-07-05 07:00:00 UTC,2445886.791667,29.6633,-93.4786,0090,0.3390
1984-07-05 07:30:00 UTC,2445886.812500,29.6633,-93.4786,0090,0.3350
1984-07-05 08:00:00 UTC,2445886.833333,29.6633,-93.4786,0090,0.3330
1984-07-05 08:30:00 UTC,2445886.854167,29.6633,-93.4786,0090,0.3310
1984-07-05 09:00:00 UTC,2445886.875000,29.6633,-93.4786,0090,0.3280
1984-07-05 09:30:00 UTC,2445886.895833,29.6633,-93.4786,0090,0.3240
1984-07-05 10:00:00 UTC,2445886.916667,29.6633,-93.4786,0090,0.3230
1984-07-05 10:30:00 UTC,2445886.937500,29.6633,-93.4786,0090,0.3260
1984-07-05 11:00:00 UTC,2445886.958333,29.6633,-93.4786,0090,0.3270
1984-07-05 11:30:00 UTC,2445886.979167,29.6633,-93.4786,0090,0.3280
1984-07-05 12:00:00 UTC,2445887.000000,29.6633,-93.4786,0090,0.3300
1984-07-05 12:30:00 UTC,2445887.020833,29.6633,-93.4786,0090,0.3300
1984-07-05 13:00:00 UTC,2445887.041667,29.6633,-93.4786,0090,0.3310
1984-07-05 13:30:00 UTC,2445887.062500,29.6633,-93.4786,0090,0.3310
1984-07-05 14:00:00 UTC,2445887.083333,29.6633,-93.4786,0090,0.3320
1984-07-05 14:30:00 UTC,2445887.104167,29.6633,-93.4786,0090,0.3320
1984-07-05 15:00:00 UTC,2445887.125000,29.6633,-93.4786,0090,0.3330
1984-07-05 15:30:00 UTC,2445887.145833,29.6633,-93.4786,0090,0.3330
1984-07-05 16:00:00 UTC,2445887.166667,29.6633,-93.4786,0090,0.3310
1984-07-05 16:30:00 UTC,2445887.187500,29.6633,-93.4786,0090,0.3290
1984-07-05 17:00:00 UTC,2445887.208333,29.6633,-93.4786,0090,0.3270
1984-07-05 17:30:00 UTC,2445887.229167,29.6633,-93.4786,0090,0.3240
1984-07-05 18:00:00 UTC,2445887.250000,29.6633,-93.4786,0090,0.3210
1984-07-05 18:30:00 UTC,2445887.270833,29.6633,-93.4786,0090,0.3180
1984-07-05 19:00:00 UTC,2445887.291667,29.6633,-93.4786,0090,0.3180
1984-07-05 19:30:00 UTC,2445887.312500,29.6633,-93.4786,0090,0.3170
1984-07-05 20:00:00 UTC,2445887.333333,29.6633,-93.4786,0090,0.3130
1984-07-05 20:30:00 UTC,2445887.354167,29.6633,-93.4786,0090,0.3120
1984-07-05 21:00:00 UTC,2445887.375000,29.6633,-93.4786,0090,0.3120
1984-07-05 21:30:00 UTC,2445887.395833,29.6633,-93.4786,0090,0.3150
1984-07-05 22:00:00 UTC,2445887.416667,29.6633,-93.4786,0090,0.3200
1984-07-05 22:30:00 UTC,2445887.437500,29.6633,-93.4786,0090,0.3210
1984-07-05 23:00:00 UTC,2445887.458333,29.6633,-93.4786,0090,0.3190
1984-07-05 23:30:00 UTC,2445887.479167,29.6633,-93.4786,0090,0.3190
1984-07-06 00:00:00 UTC,2445887.500000,29.6633,-93.4786,0090,0.3230
1984-07-06 00:30:00 UTC,2445887.520833,29.6633,-93.4786,0090,0.3320
1984-07-06 01:00:00 UTC,2445887.541667,29.6633,-93.4786,0090,0.3380
1984-07-06 01:30:00 UTC,2445887.562500,29.6633,-93.4786,0090,0.3390